Home   Weather   Tell City   Past weeks
Flag for USA

Past Weather in Tell City, Indiana, USA — Yesterday and Last 2 Weeks

Now
76 °F

Sunny.


Feels Like: 78 °F
Forecast: 88 / 63 °F
Wind: 7 mph from Southwest

Location: Bowling Green-Warren County Regional Airport

Current Time: Sep 22, 2019 at 9:34:12 am

Latest Report: Sep 22, 2019 at 8:53 am


Visibility: 10 mi

Pressure: 30.16 "Hg

Humidity: 56%

Dew Point: 59 °F

Location of Tell CityLocation

Past Weather in Tell City — Graph

°F

Tell City Temperature Yesterday

Maximum temperature yesterday: 90 °F (at 1:53 pm)
Minimum temperature yesterday: 67 °F (at 3:53 am)
Average temperature yesterday: 77 °F

High & Low Weather Summary for the Past Weeks

 TemperatureHumidityPressure
High98 °F (Sep 10, 2:53 pm)93% (Sep 8, 5:53 am)30.27 "Hg (Sep 8, 5:53 am)
Low60 °F (Sep 8, 5:53 am)24% (Sep 14, 3:53 pm)29.97 "Hg (Sep 7, 4:53 pm)
Average79 °F61%30.11 "Hg
* Reported Sep 7 7:53 am — Sep 22 7:53 am, Tell City. Weather by CustomWeather, © 2019

Note: Actual official high and low records may vary slightly from our data, if they occured in-between our weather recording intervals... More about our weather records

Advertising

Tell City Weather History for the Previous 24 Hours

Scroll right to see more
 ConditionsComfort  
Time TempWeatherWind HumidityBarometerVisibility
7:53 am
Sun, Sep 22
67 °FSunny.No wind79%30.16 "Hg10 mi
6:53 am62 °FSunny.No wind86%30.16 "Hg10 mi
5:53 am61 °FSunny.No wind87%30.16 "Hg10 mi
4:53 am62 °FClear.No wind83%30.15 "Hg10 mi
3:53 am62 °FClear.No wind83%30.14 "Hg10 mi
2:53 am63 °FClear.No wind81%30.14 "Hg10 mi
1:53 am63 °FClear.No wind81%30.13 "Hg10 mi
12:53 am64 °FClear.No wind78%30.14 "Hg10 mi
11:53 pm
Sat, Sep 21
67 °FClear.3 mph73%30.14 "Hg10 mi
10:53 pm67 °FClear.No wind71%30.15 "Hg10 mi
9:53 pm70 °FClear.No wind66%30.15 "Hg10 mi
8:53 pm73 °FClear.No wind59%30.15 "Hg10 mi
7:53 pm76 °FClear.No wind52%30.14 "Hg10 mi
6:53 pm85 °FClear.5 mph32%30.14 "Hg10 mi
5:53 pm87 °FClear.7 mph29%30.14 "Hg10 mi
4:53 pm89 °FSunny.9 mph28%30.14 "Hg10 mi
3:53 pm90 °FSunny.9 mph29%30.15 "Hg10 mi
2:53 pm89 °FSunny.10 mph32%30.16 "Hg10 mi
1:53 pm90 °FSunny.13 mph32%30.19 "Hg10 mi
12:53 pm88 °FSunny.10 mph33%30.21 "Hg10 mi
11:53 am87 °FSunny.8 mph35%30.24 "Hg10 mi
10:53 am85 °FSunny.10 mph35%30.26 "Hg10 mi
9:53 am82 °FSunny.13 mph40%30.27 "Hg10 mi
Weather by CustomWeather, © 2019

See weather overview